[[{"header":{"parameterUnit":"m.s-1","parameterCategory":1,"la1":30.2991,"la2":30.254,"lo1":-89.0895,"lo2":-89.0444,"dy":0.0017,"dx":0.0017,"nx":28,"ny":28,"refTime":"2025-03-10T03:00:00:Z","depth":0,"parameterNumber":2,"parameterNumberName":"U-component_of_WINDS"},"data":[0,0,0,0,0,0,0,0,0,0,0,0,0,0,0,0,0,0,0,0,0,0,0,0,0,0,0,0,0,0,0,0,0,0,0,0,0,0,0,0,0,0,0,0,0,0,0,0,0,0,0,0,0,0,0,0,0,0,1.5983,1.5983,0,1.6011,1.6011,1.6011,1.6003,1.6003,1.6002,1.6002,1.6033,1.6034,1.6036,0,0,0,0,0,0,0,0,0,0,0,0,0,1.5926,1.5927,1.5983,1.5983,1.5983,1.6011,1.6011,1.6011,1.6003,1.6003,1.6002,1.6001,1.6033,1.6034,1.6036,0,0,0,0,0,0,0,0,0,0,0,0,0,1.5952,1.5928,1.5982,1.5983,1.5983,1.601,1.6011,1.6011,1.6004,1.6003,1.6002,1.6001,1.6032,1.6034,1.6036,1.6066,0,0,1.6042,1.6043,0,0,0,0,0,0,0,0,1.5951,1.5954,1.5982,1.5983,1.5983,1.6003,1.6002,1.603,1.6004,1.5996,1.6002,1.6001,1.6024,1.6026,1.6034,1.6068,1.6069,1.6043,1.6044,1.6045,1.6045,0,0,0,0,0,0,0,1.5949,1.5953,1.5994,1.5983,1.5983,1.5982,1.5985,1.6008,1.6014,1.5996,1.5996,1.5999,1.6024,1.6032,1.6034,1.6069,1.6042,1.6044,1.6046,1.6046,1.6132,1.6133,0,0,0,0,0,0,1.5946,1.5951,1.5993,1.5995,1.5964,1.5984,1.5987,1.5997,1.6014,1.6016,1.6,1.5999,1.6029,1.6032,1.6035,1.6073,1.6045,1.6047,1.6048,1.6131,1.6132,1.6133,0,0,0,0,0,0,1.5945,1.595,1.5992,1.5973,1.5978,1.5986,1.5997,1.5998,1.6006,1.6017,1.6018,1.6006,1.6028,1.6033,1.6059,1.6074,1.6048,1.6049,1.6129,1.6131,1.6132,1.6148,0,0,0,0,0,0,1.5944,1.595,1.596,1.5973,1.5979,1.6013,1.5998,1.5999,1.6009,1.6008,1.6023,1.6025,1.6028,1.6056,1.6061,1.6076,1.6051,1.6128,1.613,1.6132,1.6146,1.6149,1.6153,0,0,0,0,0,1.5942,1.5963,1.5961,1.5966,1.5992,1.6014,1.6018,1.602,1.601,1.6022,1.6029,1.6025,1.6071,1.6059,1.6064,1.608,1.6127,1.613,1.6132,1.6144,1.6149,1.6153,0,0,0,0,0,0,1.5952,1.5965,1.5962,1.5989,1.6,1.6013,1.6027,1.6024,1.6039,1.6038,1.604,1.6044,1.6071,1.6078,1.6064,1.6112,1.6098,1.6102,1.6106,1.611,1.6113,1.6111,1.6053,0,0,0,0,0,1.5958,1.5974,1.5984,1.6007,1.6013,1.6019,1.6029,1.6029,1.6042,1.6047,1.6056,1.6069,1.6087,1.6099,1.6116,1.6147,1.6151,1.6161,1.6165,1.6167,1.617,1.6189,1.6194,1.6141,1.6141,1.6141,0,0,1.5969,1.5978,1.5988,1.6009,1.6018,1.6036,1.6023,1.6042,1.6056,1.605,1.6075,1.6083,1.6098,1.6127,1.6141,1.6134,1.6186,1.617,1.6172,1.6174,1.6192,1.6197,1.6202,1.6142,1.6142,1.6142,0,0,1.5999,1.6007,1.6027,1.6037,1.6051,1.6055,1.606,1.6073,1.6078,1.6103,1.61,1.6117,1.6147,1.6159,1.6169,1.6205,1.6202,1.6211,1.6229,1.6247,1.6251,1.6255,1.6269,1.6274,1.6214,1.6214,1.6214,0,1.6012,1.6037,1.6038,1.6058,1.6068,1.6063,1.6085,1.6095,1.6114,1.6122,1.6114,1.6153,1.6163,1.6196,1.6205,1.6212,1.622,1.6209,1.625,1.6254,1.6258,1.6271,1.6277,1.6215,1.6215,1.6215,1.6215,0,1.6053,1.6071,1.6086,1.6104,1.6116,1.6136,1.6142,1.6154,1.6154,1.616,1.6187,1.6199,1.6219,1.6227,1.6227,1.626,1.6256,1.6249,1.6236,1.6264,1.6277,1.6282,1.6216,1.6216,1.6216,1.6215,0,0,1.609,1.6109,1.6115,1.6124,1.6139,1.6154,1.6175,1.6194,1.6205,1.6219,1.6238,1.6265,1.6259,1.6271,1.6272,1.6288,1.6318,1.628,1.6281,1.6288,1.6358,1.6363,1.6369,1.6317,1.6318,1.6318,1.6357,0,1.6122,1.6158,1.616,1.6193,1.6211,1.6208,1.6227,1.6239,1.6246,1.6263,1.627,1.6289,1.628,1.6287,1.6302,1.6311,1.6333,1.6309,1.6336,1.6337,1.6332,1.6376,1.6381,1.6417,1.6362,1.6363,1.6363,0,1.6164,1.6179,1.6213,1.6228,1.6236,1.6252,1.6271,1.6287,1.6302,1.6306,1.6319,1.6319,1.6343,1.6329,1.6362,1.6346,1.6357,1.6364,1.6365,1.6368,1.6352,1.6381,1.6428,1.6434,1.6371,1.637,1.637,0,1.6189,1.6217,1.6242,1.625,1.6268,1.628,1.6288,1.6302,1.6314,1.6331,1.6339,1.6359,1.637,1.6386,1.6392,1.6381,1.6426,1.6412,1.6431,1.6431,1.6441,1.644,1.6491,1.6447,1.6447,1.6447,1.6447,0,1.6225,1.6246,1.6254,1.6269,1.6294,1.6298,1.6323,1.6331,1.6344,1.6362,1.6361,1.6378,1.6385,1.6404,1.6409,1.6437,1.6442,1.6447,1.6448,1.6447,1.6447,1.6455,1.6453,1.6448,1.6448,1.6448,1.6447,0,1.6256,1.6262,1.6289,1.6304,1.6308,1.6326,1.634,1.6356,1.6362,1.6385,1.6391,1.6402,1.6424,1.6432,1.6459,1.6463,1.6496,1.6495,1.6491,1.6491,1.651,1.6509,1.6569,1.6578,1.6527,1.6527,1.6528,0,1.6279,1.6296,1.6313,1.6324,1.6333,1.6352,1.6364,1.6368,1.6382,1.6401,1.6415,1.6437,1.6455,1.6492,1.6503,1.6525,1.6524,1.6544,1.6528,1.6527,1.6526,1.6525,1.6528,1.6547,1.6548,1.6548,1.6549,0,1.632,1.6322,1.6339,1.6358,1.6372,1.6387,1.6402,1.6412,1.6419,1.6434,1.6457,1.6471,1.6499,1.6522,1.6544,1.6555,1.6554,1.6554,1.656,1.6559,1.6557,1.656,1.65,1.6552,1.6552,1.6552,1.6552,1.6551,1.6348,1.6364,1.6378,1.6398,1.6409,1.6423,1.6439,1.6448,1.6467,1.649,1.6492,1.6517,1.6534,1.6563,1.6575,1.6596,1.659,1.6598,1.6601,1.6603,1.6605,1.6553,1.66,1.6599,1.6599,1.6599,1.6599,0,1.639,1.6399,1.6417,1.6438,1.6454,1.645,1.6467,1.6481,1.6503,1.6518,1.6536,1.6563,1.6586,1.6599,1.6622,1.6637,1.6637,1.6643,1.6642,1.6645,1.6608,1.6601,1.6642,1.6642,1.6642,1.6642,1.6642,1.6642,1.6413,1.6439,1.6444,1.6476,1.6486,1.651,1.652,1.6534,1.6546,1.6576,1.6595,1.6603,1.6618,1.6643,1.6664,1.6667,1.6677,1.6683,1.6686,1.6651,1.6647,1.6643,1.6637,1.6685,1.6685,1.6722,1.6722,1.6723]},{"header":{"parameterUnit":"m.s-1","parameterCategory":1,"la1":30.2991,"la2":30.254,"lo1":-89.0895,"lo2":-89.0444,"dy":0.0017,"dx":0.0017,"nx":28,"ny":28,"refTime":"2025-03-10T03:00:00:Z","depth":0,"parameterNumber":3,"parameterNumberName":"V-component_of_WINDS"},"data":[0,0,0,0,0,0,0,0,0,0,0,0,0,0,0,0,0,0,0,0,0,0,0,0,0,0,0,0,0,0,0,0,0,0,0,0,0,0,0,0,0,0,0,0,0,0,0,0,0,0,0,0,0,0,0,0,0,0,-1.7029,-1.7028,0,-1.6954,-1.6953,-1.6952,-1.6939,-1.694,-1.6941,-1.6941,-1.6861,-1.6859,-1.6856,0,0,0,0,0,0,0,0,0,0,0,0,0,-1.7156,-1.7154,-1.7029,-1.7028,-1.7027,-1.6954,-1.6953,-1.6952,-1.6939,-1.694,-1.6941,-1.6942,-1.6862,-1.6859,-1.6856,0,0,0,0,0,0,0,0,0,0,0,0,0,-1.7093,-1.7153,-1.7029,-1.7012,-1.701,-1.6954,-1.6953,-1.6952,-1.6939,-1.694,-1.6941,-1.6942,-1.6863,-1.6859,-1.6855,-1.6811,0,0,-1.6843,-1.6841,0,0,0,0,0,0,0,0,-1.7097,-1.7088,-1.7015,-1.7013,-1.701,-1.6957,-1.6969,-1.6905,-1.6939,-1.6966,-1.6941,-1.6943,-1.6892,-1.6886,-1.687,-1.6807,-1.6804,-1.6843,-1.684,-1.6838,-1.6837,0,0,0,0,0,0,0,-1.7101,-1.7091,-1.6999,-1.7014,-1.7011,-1.7007,-1.6999,-1.6957,-1.6924,-1.6964,-1.6962,-1.6954,-1.6891,-1.6874,-1.6868,-1.6803,-1.6843,-1.6839,-1.6837,-1.6835,-1.6697,-1.6696,0,0,0,0,0,0,-1.7109,-1.7095,-1.7002,-1.6997,-1.7057,-1.7003,-1.6995,-1.6973,-1.6925,-1.6919,-1.6953,-1.6954,-1.688,-1.6872,-1.6865,-1.6808,-1.6838,-1.6835,-1.6832,-1.6699,-1.6697,-1.6696,0,0,0,0,0,0,-1.7112,-1.7101,-1.7005,-1.7046,-1.7033,-1.7,-1.6976,-1.6971,-1.6954,-1.6917,-1.6911,-1.6942,-1.6881,-1.6871,-1.6824,-1.6805,-1.6833,-1.6829,-1.67,-1.6698,-1.6697,-1.6694,0,0,0,0,0,0,-1.7116,-1.7102,-1.7086,-1.7046,-1.7031,-1.6966,-1.6975,-1.6969,-1.6947,-1.6947,-1.6905,-1.6898,-1.6881,-1.683,-1.682,-1.68,-1.6826,-1.6702,-1.6699,-1.6697,-1.6696,-1.6693,-1.669,0,0,0,0,0,-1.712,-1.7088,-1.7085,-1.7074,-1.701,-1.6965,-1.6957,-1.6938,-1.6946,-1.6928,-1.6904,-1.69,-1.6809,-1.6826,-1.6814,-1.6792,-1.6703,-1.67,-1.6697,-1.6697,-1.6693,-1.669,0,0,0,0,0,0,-1.7126,-1.7082,-1.7079,-1.7033,-1.7003,-1.6963,-1.6941,-1.6935,-1.6901,-1.6902,-1.6879,-1.687,-1.6824,-1.6804,-1.6823,-1.6745,-1.6756,-1.6751,-1.676,-1.6756,-1.6753,-1.6758,-1.6822,0,0,0,0,0,-1.7122,-1.709,-1.7054,-1.7016,-1.7002,-1.6974,-1.6954,-1.6942,-1.6909,-1.6896,-1.6869,-1.6837,-1.6801,-1.6778,-1.6743,-1.6694,-1.6683,-1.6673,-1.667,-1.6667,-1.6662,-1.6632,-1.6627,-1.6687,-1.6687,-1.6687,0,0,-1.7113,-1.7085,-1.7067,-1.7017,-1.6992,-1.6958,-1.6963,-1.6928,-1.6902,-1.6891,-1.6845,-1.6824,-1.6786,-1.6738,-1.6715,-1.6719,-1.6644,-1.6664,-1.6662,-1.6658,-1.6629,-1.6623,-1.6618,-1.6685,-1.6686,-1.6686,0,0,-1.7079,-1.7056,-1.7022,-1.6997,-1.696,-1.6942,-1.6933,-1.6894,-1.688,-1.6834,-1.6825,-1.6793,-1.6732,-1.6705,-1.6683,-1.6638,-1.6631,-1.6627,-1.6611,-1.6582,-1.6577,-1.6573,-1.6554,-1.6548,-1.6623,-1.6623,-1.6623,0,-1.7072,-1.7022,-1.7004,-1.6969,-1.6946,-1.6936,-1.6899,-1.6876,-1.6829,-1.6813,-1.6819,-1.6741,-1.6715,-1.6659,-1.6648,-1.6632,-1.662,-1.6631,-1.658,-1.6575,-1.657,-1.6553,-1.6546,-1.6623,-1.6623,-1.6623,-1.6623,0,-1.7014,-1.698,-1.6956,-1.6911,-1.6886,-1.6851,-1.6826,-1.6802,-1.6793,-1.6773,-1.6725,-1.6694,-1.6651,-1.6637,-1.6627,-1.6579,-1.6583,-1.6585,-1.6594,-1.6565,-1.6547,-1.6541,-1.6622,-1.6622,-1.6622,-1.6622,0,0,-1.6981,-1.6927,-1.6919,-1.6897,-1.6856,-1.6827,-1.6791,-1.675,-1.6729,-1.6697,-1.6664,-1.6612,-1.6613,-1.6589,-1.6575,-1.655,-1.6514,-1.6555,-1.6553,-1.6546,-1.6456,-1.6453,-1.6446,-1.651,-1.6509,-1.6508,-1.6458,0,-1.6941,-1.6876,-1.6858,-1.6802,-1.6768,-1.6757,-1.6725,-1.6694,-1.6675,-1.6642,-1.6621,-1.6583,-1.6589,-1.6573,-1.6548,-1.6524,-1.6495,-1.6527,-1.6476,-1.6475,-1.6484,-1.6437,-1.6434,-1.6389,-1.6451,-1.645,-1.645,0,-1.6885,-1.6852,-1.6792,-1.6753,-1.6738,-1.671,-1.667,-1.664,-1.6605,-1.6592,-1.6564,-1.6553,-1.6512,-1.6526,-1.6468,-1.649,-1.6468,-1.6453,-1.6451,-1.6443,-1.6459,-1.6426,-1.6375,-1.6367,-1.6439,-1.644,-1.6441,0,-1.6864,-1.6805,-1.6761,-1.6743,-1.6697,-1.6677,-1.6657,-1.6623,-1.6599,-1.6564,-1.6548,-1.6508,-1.6486,-1.6455,-1.6433,-1.6445,-1.6376,-1.6388,-1.6362,-1.6363,-1.6346,-1.6347,-1.6288,-1.6336,-1.6336,-1.6337,-1.6337,0,-1.6819,-1.6783,-1.6751,-1.6724,-1.6682,-1.6661,-1.662,-1.6599,-1.6569,-1.6536,-1.6524,-1.6494,-1.6467,-1.6432,-1.6415,-1.6368,-1.6359,-1.6346,-1.6341,-1.6345,-1.6347,-1.6329,-1.6331,-1.6335,-1.6335,-1.6336,-1.6336,0,-1.6788,-1.6765,-1.6717,-1.6677,-1.6666,-1.6637,-1.6602,-1.6574,-1.6555,-1.6513,-1.6502,-1.6471,-1.6429,-1.6404,-1.6352,-1.6339,-1.6287,-1.6285,-1.6299,-1.6296,-1.6271,-1.6272,-1.6196,-1.6184,-1.6243,-1.6242,-1.6242,0,-1.676,-1.6731,-1.6689,-1.6666,-1.6646,-1.661,-1.6586,-1.6564,-1.6539,-1.6496,-1.6473,-1.6431,-1.6396,-1.6329,-1.6301,-1.626,-1.6255,-1.6231,-1.6248,-1.6253,-1.6251,-1.6252,-1.6248,-1.6227,-1.6227,-1.6226,-1.6226,0,-1.6712,-1.6702,-1.6668,-1.6629,-1.66,-1.6568,-1.6537,-1.6519,-1.6492,-1.6463,-1.6421,-1.6394,-1.634,-1.6297,-1.6253,-1.6231,-1.6223,-1.6221,-1.6212,-1.6215,-1.6224,-1.6216,-1.6288,-1.6222,-1.6223,-1.6223,-1.6223,-1.6223,-1.6679,-1.6653,-1.6618,-1.658,-1.6554,-1.6524,-1.6496,-1.6473,-1.6437,-1.6392,-1.6381,-1.6336,-1.63,-1.6241,-1.6217,-1.618,-1.6184,-1.6172,-1.6168,-1.6165,-1.6163,-1.6232,-1.6172,-1.6172,-1.6172,-1.6172,-1.6173,0,-1.6629,-1.6606,-1.6571,-1.6527,-1.6496,-1.6493,-1.6458,-1.6431,-1.6392,-1.636,-1.6325,-1.6275,-1.6234,-1.6202,-1.6159,-1.6135,-1.613,-1.6124,-1.6124,-1.6119,-1.6164,-1.6174,-1.6129,-1.6129,-1.6129,-1.6129,-1.6129,-1.6129,-1.6598,-1.6553,-1.6538,-1.6479,-1.6456,-1.6412,-1.6391,-1.6363,-1.6337,-1.6282,-1.6248,-1.6228,-1.6194,-1.6149,-1.6109,-1.6101,-1.6084,-1.6079,-1.6069,-1.6111,-1.6116,-1.612,-1.613,-1.6076,-1.6076,-1.6027,-1.6027,-1.6026]}]]